Juneau, AK

5:46 PM AKDT on May 24, 2017 (GMT -0800)
Juneau International

Weather History for PAJN - November, 2011

Change the Weather History Date:

Friday, November 18, 2011

  Actual Average Record
Temperature  
Mean Temperature 15 °F 33 °F  
Max Temperature 19 °F 37 °F 50 °F (2005)
Min Temperature 11 °F 28 °F 1 °F (1945)
Degree Days  
Heating Degree Days 50 32  
Month to date heating degree days 593 547  
Since 1 July heating degree days 2401 2232  
Moisture  
Dew Point 9 °F    
Average Humidity 77    
Maximum Humidity 100    
Minimum Humidity 54    
Precipitation  
Precipitation T in 0.19 in 2.51 in (2005)
Month to date precipitation 5.08 3.60  
Year to date precipitation 56.61 54.04  
Snow  
Snow T in 0.50 in 9.40 in (1966)
Month to date snowfall 22.9 6.3  
Since 1 July snowfall 22.9 7.1  
Since 1 September snowfall 22.9 7.1  
Snow Depth 4.00 in    
Sea Level Pressure  
Sea Level Pressure 29.99 in    
Wind  
Wind Speed 2 mph (ESE)    
Max Wind Speed 13 mph    
Max Gust Speed 16 mph    
Visibility 10 miles    
Events Snow    
T = Trace of Precipitation, MM = Missing Value Source: NWS Daily Summary

Daily Weather History Graph

Daily Weather History Graph

Search for Another Location

Airport or City:

Trip Planner

Search our weather history database for the weather conditions in past years. The results will help you decide how hot, cold, wet, or windy it might be!

Date:

Astronomy

Nov. 18, 2011 Rise Set
Actual Time 7:53 AM AKST 3:32 PM AKST
Civil Twilight 7:06 AM AKST 4:19 PM AKST
Nautical Twilight 6:17 AM AKST 5:09 PM AKST
Astronomical Twilight 5:30 AM AKST 5:56 PM AKST
Moon No Moon Rise 12:51 PM AKST (11/18)
Length of Visible Light 9h 12m
Length of Day
7h 39m
Waning Gibbous, 47% of the Moon is Illuminated
Nov 18
Waning Gibbous
Nov 24
New
Dec 2
First Quarter
Dec 10
Full
Dec 17
Last Quarter

Hourly Weather History & Observations

Time (AKST) Temp. Windchill Dew Point Humidity Pressure Visibility Wind Dir Wind Speed Gust Speed Precip Events Conditions
12:53 AM 14.0 °F - 10.9 °F 88% 30.07 in 10.0 mi Calm Calm - N/A   Clear
1:53 AM 12.9 °F - 10.0 °F 88% 30.07 in 10.0 mi Calm Calm - N/A   Partly Cloudy
3:53 AM 12.0 °F - 10.0 °F 92% 30.07 in 10.0 mi Calm Calm - N/A   Clear
4:53 AM 12.0 °F - 10.9 °F 95% 30.06 in 10.0 mi Calm Calm - N/A   Clear
5:53 AM 10.9 °F - 10.9 °F 100% 30.06 in 10.0 mi Calm Calm - N/A   Clear
6:14 AM 10.4 °F - 8.6 °F 92% 30.05 in 10.0 mi Calm Calm - N/A   Partly Cloudy
6:53 AM 12.0 °F - 10.0 °F 92% 30.04 in 10.0 mi Calm Calm - N/A   Partly Cloudy
7:53 AM 10.9 °F - 10.0 °F 96% 30.02 in 10.0 mi Calm Calm - N/A   Partly Cloudy
8:53 AM 12.0 °F - 10.9 °F 95% 30.00 in 10.0 mi Calm Calm - N/A   Scattered Clouds
9:53 AM 15.1 °F - 12.9 °F 91% 30.00 in 10.0 mi Calm Calm - N/A   Scattered Clouds
10:53 AM 19.0 °F - 8.1 °F 62% 29.98 in 10.0 mi Calm Calm - N/A   Scattered Clouds
11:53 AM 18.0 °F 7.7 °F 6.1 °F 60% 29.99 in 10.0 mi SE 8.1 mph - N/A   Scattered Clouds
12:53 PM 17.1 °F 6.6 °F 3.9 °F 56% 29.98 in 10.0 mi SE 8.1 mph - N/A   Mostly Cloudy
1:53 PM 18.0 °F 6.1 °F 5.0 °F 57% 29.97 in 10.0 mi SE 10.4 mph - N/A   Overcast
2:53 PM 18.0 °F 9.8 °F 5.0 °F 57% 29.95 in 10.0 mi ESE 5.8 mph - N/A   Overcast
3:53 PM 18.0 °F 11.1 °F 6.1 °F 60% 29.95 in 10.0 mi ESE 4.6 mph - N/A   Overcast
4:53 PM 18.0 °F 8.7 °F 6.1 °F 60% 29.94 in 10.0 mi SE 6.9 mph - N/A   Overcast
5:53 PM 19.0 °F - 6.1 °F 57% 29.94 in 10.0 mi Calm Calm - N/A   Overcast
6:53 PM 19.0 °F - 9.0 °F 65% 29.94 in 10.0 mi Calm Calm - N/A   Overcast
7:53 PM 19.0 °F - 7.0 °F 59% 29.95 in 10.0 mi Calm Calm - N/A   Overcast
8:53 PM 18.0 °F - 8.1 °F 65% 29.95 in 10.0 mi Calm Calm - 0.00 in Snow Light Snow
9:53 PM 18.0 °F - 9.0 °F 68% 29.96 in 10.0 mi Calm Calm - 0.00 in Snow Light Snow
10:53 PM 17.1 °F - 10.9 °F 77% 29.96 in 9.0 mi Calm Calm - 0.00 in Snow Light Snow
11:53 PM 15.1 °F 9.4 °F 12.0 °F 88% 29.97 in 10.0 mi ENE 3.5 mph - 0.00 in   Scattered Clouds